[[{"header":{"parameterUnit":"m.s-1","parameterCategory":1,"la1":30.2991,"la2":30.254,"lo1":-89.0895,"lo2":-89.0444,"dy":0.0017,"dx":0.0017,"nx":28,"ny":28,"refTime":"2025-06-04T09:00:00:Z","depth":0,"parameterNumber":2,"parameterNumberName":"U-component_of_WINDS"},"data":[0,0,0,0,0,0,0,0,0,0,0,0,0,0,0,0,0,0,0,0,0,0,0,0,0,0,0,0,0,0,0,0,0,0,0,0,0,0,0,0,0,0,0,0,0,0,0,0,0,0,0,0,0,0,0,0,0,0,0.5606,0.5607,0,0.569,0.5691,0.5692,0.5745,0.5745,0.5746,0.5746,0.5832,0.5834,0.5835,0,0,0,0,0,0,0,0,0,0,0,0,0,0.5492,0.5494,0.5606,0.5607,0.5608,0.569,0.5691,0.5692,0.5745,0.5745,0.5746,0.5746,0.5831,0.5833,0.5836,0,0,0,0,0,0,0,0,0,0,0,0,0,0.5555,0.5494,0.5606,0.5645,0.5649,0.569,0.5691,0.5693,0.5745,0.5745,0.5746,0.5746,0.583,0.5833,0.5836,0.5845,0,0,0.5845,0.5846,0,0,0,0,0,0,0,0,0.5551,0.5559,0.5638,0.5642,0.5647,0.5708,0.5682,0.5744,0.5745,0.5708,0.5746,0.5746,0.579,0.5796,0.5811,0.5849,0.5853,0.5845,0.5847,0.5849,0.5849,0,0,0,0,0,0,0,0.5547,0.5556,0.564,0.5639,0.5644,0.5657,0.5667,0.5694,0.5746,0.5712,0.5716,0.5725,0.5792,0.5808,0.5813,0.5854,0.5845,0.5848,0.585,0.5851,0.5905,0.5904,0,0,0,0,0,0,0.5537,0.5552,0.5637,0.5642,0.5599,0.5659,0.567,0.5688,0.5745,0.5755,0.5724,0.5727,0.5803,0.581,0.5817,0.5832,0.5849,0.5851,0.5853,0.5905,0.5905,0.5904,0,0,0,0,0,0,0.5534,0.5544,0.5634,0.5598,0.5611,0.5661,0.568,0.5689,0.5705,0.5755,0.5764,0.5731,0.5803,0.5812,0.5838,0.5835,0.5853,0.5855,0.5906,0.5905,0.5905,0.5862,0,0,0,0,0,0,0.553,0.5542,0.5547,0.5598,0.5612,0.5653,0.568,0.569,0.571,0.5714,0.5764,0.5772,0.5804,0.5833,0.5841,0.584,0.5858,0.5906,0.5905,0.5905,0.5863,0.586,0.5856,0,0,0,0,0,0.5526,0.5531,0.5546,0.5556,0.5618,0.5653,0.5661,0.5698,0.5709,0.5714,0.5746,0.5771,0.5834,0.5835,0.5844,0.5844,0.5906,0.5906,0.5905,0.5865,0.586,0.5856,0,0,0,0,0,0,0.5478,0.5538,0.5556,0.5578,0.561,0.5662,0.5669,0.5692,0.5722,0.5724,0.5769,0.5779,0.58,0.5825,0.5825,0.5856,0.5873,0.5874,0.584,0.5836,0.5832,0.5826,0.586,0,0,0,0,0,0.547,0.5493,0.5545,0.5559,0.5574,0.5618,0.5635,0.566,0.5695,0.5709,0.5744,0.5776,0.5804,0.5821,0.5849,0.5867,0.5879,0.5871,0.5868,0.5865,0.5865,0.5877,0.5874,0.5902,0.5902,0.5902,0,0,0.5454,0.5489,0.5501,0.555,0.5578,0.5601,0.5629,0.5652,0.567,0.5713,0.5739,0.5765,0.5805,0.5826,0.5838,0.5848,0.586,0.5864,0.5861,0.5863,0.5875,0.5873,0.587,0.5901,0.5901,0.5901,0,0,0.5436,0.5465,0.548,0.5507,0.5549,0.5579,0.5582,0.5631,0.565,0.5677,0.5709,0.573,0.5777,0.5804,0.5824,0.5815,0.5839,0.5823,0.5805,0.5815,0.5813,0.5811,0.5809,0.5807,0.5823,0.5823,0.5823,0,0.541,0.5446,0.5485,0.5506,0.5527,0.5566,0.5582,0.5606,0.5655,0.5668,0.5678,0.5737,0.5767,0.5795,0.5793,0.5808,0.5813,0.5818,0.581,0.5809,0.5808,0.5806,0.5805,0.5821,0.5821,0.5821,0.5822,0,0.5413,0.5437,0.5444,0.549,0.5511,0.553,0.5571,0.5588,0.5611,0.564,0.5667,0.5703,0.574,0.5748,0.5771,0.578,0.5785,0.5802,0.582,0.5803,0.5801,0.5801,0.5818,0.5819,0.5819,0.582,0,0,0.5367,0.5434,0.5436,0.5458,0.5507,0.5526,0.5546,0.5582,0.5595,0.5627,0.5645,0.5683,0.5699,0.5722,0.5748,0.5757,0.5749,0.5773,0.5775,0.5768,0.5761,0.5748,0.5746,0.5764,0.5764,0.5764,0.5758,0,0.5357,0.5395,0.543,0.5456,0.5479,0.5516,0.5534,0.5565,0.5592,0.5616,0.5645,0.5672,0.5691,0.5705,0.5715,0.5747,0.5748,0.5748,0.5782,0.5782,0.5771,0.5746,0.5732,0.5724,0.5757,0.5757,0.5757,0,0.535,0.538,0.5408,0.5455,0.5466,0.548,0.5516,0.5538,0.5574,0.5593,0.5618,0.5646,0.5668,0.5683,0.5715,0.5715,0.573,0.5748,0.5749,0.5754,0.5769,0.5751,0.5723,0.5721,0.5757,0.5757,0.5757,0,0.5315,0.5362,0.5385,0.5402,0.5457,0.5467,0.549,0.5527,0.5546,0.5577,0.559,0.5622,0.564,0.5665,0.5701,0.5708,0.5729,0.5747,0.5746,0.5745,0.5749,0.5748,0.5724,0.5758,0.5758,0.5758,0.5758,0,0.53,0.5315,0.537,0.5384,0.5402,0.5443,0.546,0.5486,0.5519,0.5539,0.5573,0.5591,0.5637,0.566,0.5688,0.5711,0.5719,0.5735,0.5742,0.5732,0.573,0.5743,0.5745,0.5758,0.5758,0.5758,0.5758,0,0.5263,0.5301,0.5328,0.5378,0.5391,0.5402,0.5444,0.5459,0.5488,0.5512,0.552,0.5565,0.5595,0.5633,0.5674,0.5693,0.5712,0.5723,0.5699,0.5704,0.5701,0.5701,0.5684,0.5684,0.5718,0.5717,0.5717,0,0.5252,0.5264,0.5315,0.5331,0.5353,0.5378,0.5398,0.5438,0.5457,0.5499,0.5509,0.5541,0.5568,0.5613,0.5649,0.5681,0.5694,0.5686,0.5699,0.5688,0.5694,0.5693,0.5695,0.5683,0.5682,0.5681,0.5681,0,0.5227,0.5245,0.5272,0.5305,0.5327,0.5356,0.5385,0.5396,0.5442,0.5462,0.5492,0.5513,0.5555,0.5587,0.5623,0.5647,0.5672,0.5677,0.5678,0.5668,0.5654,0.5662,0.5691,0.5677,0.5677,0.5678,0.5678,0.5678,0.5203,0.5216,0.5254,0.5283,0.5309,0.5336,0.5353,0.5383,0.5409,0.5447,0.5469,0.5498,0.5534,0.5586,0.5609,0.5632,0.5642,0.5644,0.5644,0.5644,0.5641,0.565,0.5639,0.5639,0.5639,0.5639,0.5639,0,0.518,0.5206,0.5232,0.5273,0.5296,0.5317,0.5351,0.5368,0.5394,0.5426,0.5452,0.5487,0.5517,0.5555,0.5588,0.56,0.5612,0.5607,0.5607,0.5612,0.5631,0.5626,0.5597,0.5597,0.5597,0.5597,0.5597,0.5597,0.5171,0.5194,0.5217,0.5254,0.528,0.5309,0.5327,0.5352,0.5377,0.5415,0.544,0.5465,0.5499,0.5535,0.5564,0.5574,0.5585,0.5577,0.5591,0.5607,0.5611,0.5615,0.5611,0.5579,0.5579,0.5571,0.557,0.557]},{"header":{"parameterUnit":"m.s-1","parameterCategory":1,"la1":30.2991,"la2":30.254,"lo1":-89.0895,"lo2":-89.0444,"dy":0.0017,"dx":0.0017,"nx":28,"ny":28,"refTime":"2025-06-04T09:00:00:Z","depth":0,"parameterNumber":3,"parameterNumberName":"V-component_of_WINDS"},"data":[0,0,0,0,0,0,0,0,0,0,0,0,0,0,0,0,0,0,0,0,0,0,0,0,0,0,0,0,0,0,0,0,0,0,0,0,0,0,0,0,0,0,0,0,0,0,0,0,0,0,0,0,0,0,0,0,0,0,1.9273,1.9272,0,1.9229,1.9229,1.9228,1.9224,1.9225,1.9225,1.9226,1.9177,1.9175,1.9174,0,0,0,0,0,0,0,0,0,0,0,0,0,1.9349,1.9348,1.9273,1.9272,1.9272,1.9229,1.9229,1.9228,1.9224,1.9225,1.9226,1.9226,1.9178,1.9176,1.9174,0,0,0,0,0,0,0,0,0,0,0,0,0,1.9312,1.9348,1.9273,1.9265,1.9264,1.9229,1.9229,1.9228,1.9224,1.9225,1.9226,1.9226,1.9178,1.9176,1.9173,1.9143,0,0,1.9165,1.9164,0,0,0,0,0,0,0,0,1.9314,1.9309,1.9267,1.9265,1.9264,1.9233,1.9238,1.9199,1.9224,1.9239,1.9226,1.9227,1.9195,1.9191,1.9181,1.914,1.9138,1.9165,1.9164,1.9162,1.9162,0,0,0,0,0,0,0,1.9317,1.9311,1.9255,1.9266,1.9264,1.9262,1.9258,1.923,1.9213,1.9238,1.9238,1.9233,1.9194,1.9184,1.918,1.9138,1.9165,1.9163,1.9161,1.916,1.9069,1.9068,0,0,0,0,0,0,1.9321,1.9313,1.9257,1.9254,1.9291,1.926,1.9255,1.9242,1.9214,1.921,1.9232,1.9233,1.9188,1.9183,1.9178,1.914,1.9162,1.916,1.9158,1.907,1.9069,1.9068,0,0,0,0,0,0,1.9323,1.9316,1.9259,1.9284,1.9276,1.9258,1.9244,1.9241,1.923,1.9209,1.9206,1.9224,1.9188,1.9182,1.9152,1.9138,1.9159,1.9156,1.9071,1.907,1.9068,1.9064,0,0,0,0,0,0,1.9325,1.9317,1.9306,1.9283,1.9275,1.9234,1.9243,1.924,1.9226,1.9227,1.9201,1.9198,1.9188,1.9156,1.9149,1.9135,1.9154,1.9072,1.907,1.9069,1.9065,1.9062,1.906,0,0,0,0,0,1.9328,1.9306,1.9305,1.9299,1.9261,1.9233,1.9228,1.9219,1.9225,1.9213,1.92,1.9199,1.9141,1.9153,1.9145,1.913,1.9073,1.9071,1.9069,1.9066,1.9063,1.906,0,0,0,0,0,0,1.9325,1.9302,1.9302,1.9272,1.9255,1.9233,1.9217,1.9216,1.9195,1.9196,1.9184,1.9178,1.9149,1.9136,1.915,1.9099,1.9107,1.9104,1.9108,1.9105,1.9102,1.9105,1.9152,0,0,0,0,0,1.9322,1.9302,1.9283,1.9258,1.925,1.9235,1.9223,1.9217,1.9198,1.919,1.9175,1.9155,1.9133,1.9118,1.9096,1.9064,1.9057,1.9049,1.9047,1.9045,1.9042,1.9023,1.9019,1.9062,1.9062,1.9062,0,0,1.9313,1.9298,1.9286,1.9257,1.9243,1.9222,1.9229,1.9206,1.919,1.9187,1.9157,1.9145,1.9123,1.9091,1.9076,1.908,1.9029,1.9043,1.9042,1.9039,1.9021,1.9017,1.9013,1.906,1.9061,1.9061,0,0,1.9287,1.9274,1.9252,1.9238,1.9217,1.9208,1.9203,1.9181,1.9173,1.9144,1.9141,1.9121,1.9083,1.9067,1.9053,1.9022,1.9019,1.9015,1.9002,1.8984,1.898,1.8977,1.8965,1.8961,1.9012,1.9012,1.9012,0,1.9278,1.9248,1.924,1.9218,1.9205,1.9202,1.9179,1.9166,1.9138,1.9129,1.9134,1.9086,1.907,1.9035,1.9027,1.9017,1.9009,1.9017,1.8982,1.8979,1.8976,1.8964,1.8959,1.9011,1.9012,1.9012,1.9012,0,1.9238,1.9217,1.9201,1.9177,1.9162,1.9139,1.9127,1.9113,1.9109,1.9098,1.9068,1.905,1.9024,1.9016,1.9011,1.8979,1.8982,1.8985,1.8993,1.8971,1.896,1.8956,1.9011,1.9011,1.9011,1.9011,0,0,1.9208,1.918,1.9174,1.9163,1.914,1.9123,1.91,1.9076,1.9064,1.9045,1.9025,1.8993,1.8995,1.898,1.8974,1.8958,1.8933,1.8962,1.8962,1.8957,1.8896,1.8893,1.8888,1.8932,1.8931,1.893,1.8898,0,1.9178,1.9138,1.9131,1.9096,1.9076,1.9073,1.9053,1.9036,1.9026,1.9007,1.8995,1.8972,1.8978,1.8969,1.8953,1.8939,1.892,1.8942,1.8911,1.891,1.8916,1.8883,1.888,1.885,1.8893,1.8892,1.8892,0,1.9138,1.912,1.9083,1.9063,1.9054,1.9037,1.9014,1.8996,1.8977,1.897,1.8954,1.895,1.8924,1.8935,1.8899,1.8914,1.8901,1.8893,1.8891,1.8887,1.8899,1.8877,1.884,1.8835,1.8885,1.8886,1.8886,0,1.9118,1.9085,1.9058,1.9049,1.9025,1.9013,1.9002,1.8983,1.897,1.895,1.894,1.8918,1.8905,1.8886,1.8875,1.8884,1.884,1.885,1.8833,1.8833,1.8823,1.8824,1.8783,1.8817,1.8817,1.8817,1.8817,0,1.9085,1.9063,1.9049,1.9033,1.9007,1.8999,1.8973,1.8963,1.8946,1.8927,1.8923,1.8905,1.8892,1.8871,1.8862,1.8834,1.8828,1.8821,1.8819,1.8821,1.8822,1.8812,1.8813,1.8816,1.8816,1.8816,1.8816,0,1.9059,1.9049,1.902,1.9001,1.8995,1.8977,1.896,1.8943,1.8934,1.8909,1.8903,1.8887,1.8863,1.885,1.8819,1.8814,1.8781,1.8781,1.8788,1.8787,1.8771,1.8772,1.8721,1.8714,1.8753,1.8753,1.8752,0,1.9038,1.9021,1.9,1.8987,1.8977,1.8956,1.8943,1.8934,1.8919,1.8897,1.8882,1.8858,1.8838,1.88,1.8784,1.8761,1.8759,1.8743,1.8755,1.8758,1.8758,1.8759,1.8756,1.874,1.874,1.874,1.8739,0,1.9002,1.8998,1.8979,1.8959,1.8943,1.8926,1.8909,1.8899,1.8887,1.8871,1.8847,1.8831,1.8801,1.8776,1.8752,1.8739,1.8737,1.8736,1.8731,1.8732,1.8737,1.8733,1.8781,1.8737,1.8737,1.8737,1.8737,1.8737,1.8976,1.8961,1.8944,1.8923,1.891,1.8894,1.8878,1.8867,1.8847,1.8822,1.8818,1.8792,1.8773,1.874,1.8727,1.8706,1.8709,1.8702,1.87,1.8698,1.8697,1.8741,1.8702,1.8702,1.8702,1.8702,1.8702,0,1.8939,1.8928,1.8909,1.8887,1.887,1.8871,1.8853,1.8838,1.8816,1.8799,1.878,1.8752,1.8729,1.8713,1.8689,1.8675,1.8673,1.8669,1.8669,1.8666,1.8695,1.8702,1.867,1.867,1.867,1.867,1.867,1.867,1.8918,1.8891,1.8886,1.8853,1.8842,1.8818,1.8807,1.8792,1.8779,1.8748,1.8729,1.8719,1.8702,1.8677,1.8655,1.8651,1.8642,1.8637,1.8633,1.8661,1.8664,1.8667,1.8673,1.8636,1.8636,1.8605,1.8605,1.8604]}]]